CW8822 Caguas PR US current weather conditions

sailwx.info

Wind from 186 at 2 knots gusting 6

Air temperature 28.3° C
Dewpoint 21.6° C

Last reported at 2015-Apr-19 14:43 UTC.
Time now 2015-Apr-19 15:40 UTC

Location: N 18°12' W 066°01'.
View on Google Maps.

See reports from other nearby stations

  
Tides and Currents Weather Stations Pressure Air Temp Water Temp Dewpoint Dewpoint Depression Visibility Wind Speed Wind Dir Waves Ship Positions
date/time (UTC)wind fromknots sea level pressurealtimeterstation pressurevisibilityair tempwater tempwave heightnotes
2015-Apr-19 14:43 186 2 gusting 6 28.3
2015-Apr-19 14:29 079 2 gusting 7 28.3
2015-Apr-19 14:13 186 1 gusting 10 27.2
2015-Apr-19 13:57 098 1 gusting 12 26.7
2015-Apr-19 13:43 132 3 gusting 11 26.7
2015-Apr-19 13:28 068 1 gusting 6 26.1
2015-Apr-19 13:12 142 3 gusting 8 26.1
2015-Apr-19 12:58 113 1 gusting 6 26.1
2015-Apr-19 12:42 146 2 gusting 6 26.1
2015-Apr-19 12:27 109 0 gusting 5 25.0
2015-Apr-19 12:12 133 0 gusting 6 25.0
2015-Apr-19 11:57 126 2 gusting 9 24.4
2015-Apr-19 11:42 135 0 gusting 6 23.9
2015-Apr-19 11:27 122 0 gusting 6 23.9
2015-Apr-19 11:11 107 0 gusting 4 23.9
2015-Apr-19 10:56 112 0 gusting 4 23.3
2015-Apr-19 10:41 094 1 gusting 6 22.8
2015-Apr-19 10:26 089 22.8
2015-Apr-19 10:11 094 22.8
2015-Apr-19 09:56 094 22.8
2015-Apr-19 09:41 095 22.8
2015-Apr-19 09:26 094 22.8
2015-Apr-19 09:11 094 22.8
2015-Apr-19 08:56 070 22.8
2015-Apr-19 08:41 096 22.8
2015-Apr-19 08:26 096 22.8
2015-Apr-19 08:11 083 22.8
2015-Apr-19 07:56 069 0 gusting 6 22.8
2015-Apr-19 07:41 071 0 gusting 3 22.8
2015-Apr-19 07:26 098 22.8
2015-Apr-19 07:11 085 0 gusting 6 22.8
2015-Apr-19 06:56 095 22.8
2015-Apr-19 06:41 138 23.3
2015-Apr-19 06:26 129 1 gusting 6 23.3
2015-Apr-19 06:11 108 0 gusting 5 23.3
2015-Apr-19 05:56 107 0 gusting 7 23.3
2015-Apr-19 05:41 136 0 gusting 6 23.3
2015-Apr-19 05:26 130 0 gusting 2 23.3
2015-Apr-19 05:11 130 0 gusting 4 23.3
2015-Apr-19 04:56 130 23.3
2015-Apr-19 04:41 130 0 gusting 4 23.3
2015-Apr-19 04:26 117 23.3
2015-Apr-19 04:11 116 23.3
2015-Apr-19 03:56 103 1 gusting 7 23.3
2015-Apr-19 03:41 105 0 gusting 3 23.3
2015-Apr-19 03:26 113 0 gusting 4 23.3
2015-Apr-19 03:11 117 23.9
2015-Apr-19 02:56 125 0 gusting 4 23.9
2015-Apr-19 02:41 130 0 gusting 6 23.9
2015-Apr-19 02:26 090 0 gusting 5 23.9
2015-Apr-19 02:11 132 1 gusting 5 23.3
2015-Apr-19 01:56 122 23.3
2015-Apr-19 01:41 094 23.9
2015-Apr-19 01:26 123 1 gusting 6 23.9
2015-Apr-19 01:11 125 0 gusting 5 23.9
2015-Apr-19 00:56 128 1 gusting 9 23.9
2015-Apr-19 00:41 134 0 gusting 5 23.9
2015-Apr-19 00:26 105 0 gusting 5 23.9
2015-Apr-19 00:11 117 0 gusting 6 23.9
2015-Apr-18 23:56 126 1 gusting 6 23.9
2015-Apr-18 23:41 115 0 gusting 6 23.9
2015-Apr-18 23:26 115 1 gusting 6 23.9
2015-Apr-18 23:11 107 0 gusting 6 24.4
2015-Apr-18 22:56 098 0 gusting 5 24.4
2015-Apr-18 22:41 090 0 gusting 6 25.0
2015-Apr-18 22:26 107 0 gusting 5 25.6
2015-Apr-18 22:11 105 2 gusting 6 26.1
2015-Apr-18 21:56 144 3 gusting 8 26.1
2015-Apr-18 21:41 149 2 gusting 11 26.1
2015-Apr-18 21:26 087 3 gusting 11 26.7
2015-Apr-18 21:11 129 4 gusting 13 27.2
2015-Apr-18 20:56 151 4 gusting 12 27.2
2015-Apr-18 20:41 139 3 gusting 9 27.8
2015-Apr-18 20:26 098 3 gusting 12 27.8
2015-Apr-18 20:11 080 3 gusting 12 27.8
2015-Apr-18 19:55 145 4 gusting 14 27.8
2015-Apr-18 19:40 097 4 gusting 11 27.8
2015-Apr-18 19:25 093 4 gusting 8 28.9
2015-Apr-18 19:10 088 5 gusting 13 28.3
2015-Apr-18 18:55 053 4 gusting 12 28.9
2015-Apr-18 18:40 152 1 gusting 14 28.9
2015-Apr-18 18:25 126 4 gusting 12 28.3
2015-Apr-18 18:10 084 5 gusting 15 28.3
2015-Apr-18 17:55 207 3 gusting 9 29.4
2015-Apr-18 17:40 072 5 gusting 12 28.9
2015-Apr-18 17:25 093 5 gusting 12 28.3
2015-Apr-18 17:10 139 4 gusting 11 28.9
2015-Apr-18 16:55 092 4 gusting 11 28.3
2015-Apr-18 16:40 067 1 gusting 10 28.3
2015-Apr-18 16:25 134 1 gusting 8 28.3
2015-Apr-18 16:10 057 3 gusting 11 28.3
2015-Apr-18 15:55 159 4 gusting 11 27.8
2015-Apr-18 15:40 109 3 gusting 9 27.8
2015-Apr-18 15:25 064 3 gusting 10 27.8
2015-Apr-18 15:10 116 4 gusting 11 27.2
2015-Apr-18 14:55 092 3 gusting 9 26.7
2015-Apr-18 14:40 131 5 gusting 11 26.7
2015-Apr-18 14:25 084 3 gusting 11 26.7
2015-Apr-18 14:10 139 3 gusting 8 26.1
2015-Apr-18 13:55 107 1 gusting 8 26.1
2015-Apr-18 13:40 082 1 gusting 7 25.6
2015-Apr-18 13:25 091 3 gusting 11 25.6
2015-Apr-18 13:10 101 0 gusting 4 25.0
2015-Apr-18 12:55 140 23.9
2015-Apr-18 12:40 137 1 gusting 6 23.3
2015-Apr-18 12:25 100 22.8
2015-Apr-18 12:09 136 22.2
2015-Apr-18 11:54 110 22.2
2015-Apr-18 11:39 123 0 gusting 2 22.8
2015-Apr-18 11:24 123 22.8
2015-Apr-18 11:09 123 22.2
2015-Apr-18 10:54 136 22.2
2015-Apr-18 10:39 128 0 gusting 6 21.7
2015-Apr-18 10:24 149 21.7
2015-Apr-18 10:09 112 21.7
2015-Apr-18 09:54 070 21.7
2015-Apr-18 09:39 070 0 gusting 3 21.7
2015-Apr-18 09:24 099 21.7
2015-Apr-18 09:09 096 0 gusting 4 22.2
2015-Apr-18 08:54 111 22.2
2015-Apr-18 08:39 103 0 gusting 7 21.7
2015-Apr-18 08:24 130 21.7
2015-Apr-18 08:09 130 0 gusting 2 21.7
2015-Apr-18 07:54 130 22.2
2015-Apr-18 07:39 130 21.7
2015-Apr-18 07:24 130 21.7
2015-Apr-18 07:09 133 21.7
2015-Apr-18 06:54 133 21.7
2015-Apr-18 06:39 133 22.2
2015-Apr-18 06:24 133 1 gusting 4 22.2
2015-Apr-18 06:09 137 22.2
2015-Apr-18 05:54 136 22.2
2015-Apr-18 05:39 137 22.2
2015-Apr-18 05:24 091 0 gusting 2 22.2
2015-Apr-18 05:09 091 22.2
2015-Apr-18 04:54 091 22.2
2015-Apr-18 04:39 124 22.2
2015-Apr-18 04:24 127 22.2
2015-Apr-18 04:10 098 0 gusting 5 22.2
2015-Apr-18 03:54 116 22.2
2015-Apr-18 03:39 119 1 gusting 4 22.2
2015-Apr-18 03:24 104 22.2
2015-Apr-18 03:09 096 22.2
2015-Apr-18 02:54 096 22.2
2015-Apr-18 02:39 096 22.2
2015-Apr-18 02:24 097 22.2
2015-Apr-18 02:09 084 22.2
2015-Apr-18 01:54 093 22.8
2015-Apr-18 01:39 092 0 gusting 4 22.8
2015-Apr-18 01:24 098 0 gusting 3 22.8
2015-Apr-18 01:08 145 22.8
2015-Apr-18 00:53 146 0 gusting 5 22.8
2015-Apr-18 00:38 121 22.8
2015-Apr-18 00:23 119 22.8
2015-Apr-18 00:08 122 22.8
2015-Apr-17 23:53 127 23.3
2015-Apr-17 23:38 128 23.3
2015-Apr-17 23:23 148 23.3
2015-Apr-17 23:08 105 0 gusting 6 23.9
2015-Apr-17 22:53 101 1 gusting 6 23.9
2015-Apr-17 22:38 071 24.4
2015-Apr-17 22:23 078 0 gusting 6 24.4
2015-Apr-17 22:08 087 1 gusting 8 24.4
2015-Apr-17 21:53 085 1 gusting 8 25.0
2015-Apr-17 21:38 066 25.6
2015-Apr-17 21:23 094 2 gusting 8 26.1
2015-Apr-17 21:08 111 0 gusting 9 25.6
2015-Apr-17 20:53 152 0 gusting 9 26.1
2015-Apr-17 20:38 146 2 gusting 8 26.7
2015-Apr-17 20:23
2015-Apr-17 20:08
2015-Apr-17 19:40 086 0 gusting 7 26.1
2015-Apr-17 19:26 005 3 gusting 8 26.7
2015-Apr-17 19:10 101 3 gusting 11 27.2
2015-Apr-17 18:54 077 2 gusting 9 27.2
2015-Apr-17 18:40 088 4 gusting 10 26.7
2015-Apr-17 18:25 105 2 gusting 9 27.2
2015-Apr-17 18:09 136 1 gusting 8 27.2
2015-Apr-17 17:55 167 2 gusting 7 28.3
2015-Apr-17 17:39 102 3 gusting 9 27.8
2015-Apr-17 17:24 076 1 gusting 9 27.2
2015-Apr-17 17:10 082 1 gusting 12 27.2
2015-Apr-17 16:54 161 2 gusting 10 28.3
2015-Apr-17 16:39 138 1 gusting 6 28.9
2015-Apr-17 16:23 182 1 gusting 7 28.3
2015-Apr-17 16:09 090 3 gusting 10 27.8
2015-Apr-17 15:54 111 1 gusting 11 27.2
2015-Apr-17 15:39 162 0 gusting 7 28.3
2015-Apr-17 15:24 032 2 gusting 12 27.8
2015-Apr-17 15:09 074 1 gusting 11 28.3